ASL131 UUEE-LYBE

Flight info

Callsign ASL131
Flight time N/A
Altitude 36000
Route LIDRI3H LIDRI T781 REPNU N609 DURTI L29 LEGSI M984 LETKI/N0433F360 DCT VADOL DCT REGTO DCT PARAK/N0433F350 DCT TISAK
Aircraft A319/M-SDE3FGHIRWY/LB1

Departure

Time 2026-04-30 14:11
Airport Sheremetyevo International Airport (UUEE)

Arrival

Time N/A
Airport Belgrade Nikola Tesla Airport (LYBE)
Time Latitude Longitude Altitude Speed Heading
2026-04-30 13:50 55.97784 37.41308 639 ft 0 kts 256°
2026-04-30 14:04 55.97787 37.41333 643 ft 4 kts 258°
2026-04-30 14:05 55.97793 37.41380 644 ft 4 kts 254°
2026-04-30 14:05 55.97802 37.41418 641 ft 4 kts 204°
2026-04-30 14:05 55.97809 37.41422 642 ft 0 kts 165°
2026-04-30 14:08 55.97721 37.41463 642 ft 16 kts 165°
2026-04-30 14:09 55.97654 37.41590 639 ft 15 kts 152°
2026-04-30 14:09 55.97617 37.41736 639 ft 17 kts 75°
2026-04-30 14:09 55.97689 37.42219 641 ft 20 kts 75°
2026-04-30 14:10 55.97727 37.42473 641 ft 21 kts 75°
2026-04-30 14:10 55.97762 37.42729 646 ft 17 kts 94°
2026-04-30 14:10 55.97654 37.42831 641 ft 20 kts 172°
2026-04-30 14:10 55.97582 37.42692 643 ft 7 kts 255°
2026-04-30 14:11 55.97538 37.42384 640 ft 60 kts 255°
2026-04-30 14:11 55.97370 37.41256 642 ft 125 kts 255°
2026-04-30 14:11 55.97114 37.39548 963 ft 143 kts 257°
2026-04-30 14:11 55.96855 37.37879 1646 ft 139 kts 257°
2026-04-30 14:12 55.96586 37.36170 2051 ft 151 kts 258°
2026-04-30 14:12 55.96281 37.34227 2302 ft 174 kts 257°
2026-04-30 14:12 55.95936 37.32013 2610 ft 196 kts 256°
2026-04-30 14:12 55.95683 37.30397 2864 ft 210 kts 257°
2026-04-30 14:13 55.95122 37.26831 3591 ft 233 kts 256°
2026-04-30 14:13 55.94664 37.23927 4244 ft 250 kts 256°
2026-04-30 14:13 55.94184 37.20902 5218 ft 256 kts 256°
2026-04-30 14:13 55.93693 37.17818 6239 ft 259 kts 256°
2026-04-30 14:14 55.93199 37.14709 7218 ft 263 kts 256°
2026-04-30 14:14 55.92698 37.11547 8156 ft 267 kts 256°
2026-04-30 14:14 55.92186 37.08332 9098 ft 272 kts 256°
2026-04-30 14:14 55.91667 37.05061 10027 ft 277 kts 256°
2026-04-30 14:15 55.91162 37.01719 10850 ft 281 kts 261°
2026-04-30 14:15 55.90993 36.98250 11656 ft 283 kts 273°
2026-04-30 14:15 55.91040 36.94726 12483 ft 287 kts 274°
2026-04-30 14:15 55.91082 36.91149 13293 ft 291 kts 274°
2026-04-30 14:16 55.91117 36.87506 14070 ft 296 kts 274°
2026-04-30 14:16 55.91146 36.83816 14770 ft 300 kts 274°
2026-04-30 14:16 55.91174 36.80074 15477 ft 304 kts 274°
2026-04-30 14:16 55.91196 36.76278 16197 ft 308 kts 273°
2026-04-30 14:17 55.91149 36.72377 16541 ft 326 kts 271°
2026-04-30 14:17 55.91039 36.68201 16684 ft 348 kts 270°
2026-04-30 14:17 55.90889 36.63776 16825 ft 367 kts 269°
2026-04-30 14:17 55.90714 36.59062 17044 ft 384 kts 269°
2026-04-30 14:18 55.90530 36.54335 17570 ft 390 kts 269°
2026-04-30 14:18 55.90339 36.49414 18207 ft 394 kts 269°
2026-04-30 14:18 55.89977 36.39560 19329 ft 402 kts 270°
2026-04-30 14:19 55.89616 36.29521 20392 ft 410 kts 270°
2026-04-30 14:19 55.89433 36.24428 20898 ft 414 kts 270°
2026-04-30 14:19 55.89244 36.19297 21385 ft 417 kts 270°
2026-04-30 14:20 55.89051 36.14103 21785 ft 422 kts 271°
2026-04-30 14:20 55.88854 36.08849 22221 ft 426 kts 271°
2026-04-30 14:20 55.88443 35.98223 23114 ft 434 kts 271°
2026-04-30 14:21 55.88232 35.92849 23550 ft 437 kts 271°
2026-04-30 14:21 55.88017 35.87433 23951 ft 440 kts 271°
2026-04-30 14:21 55.87573 35.76486 24679 ft 446 kts 271°
2026-04-30 14:22 55.87344 35.70954 25046 ft 449 kts 271°
2026-04-30 14:22 55.86879 35.59800 25754 ft 454 kts 271°
2026-04-30 14:22 55.86640 35.54173 26098 ft 457 kts 271°
2026-04-30 14:23 55.86153 35.42819 26757 ft 463 kts 271°
2026-04-30 14:23 55.85652 35.31339 27380 ft 468 kts 271°
2026-04-30 14:24 55.85135 35.19738 27993 ft 473 kts 271°
2026-04-30 14:24 55.84869 35.13889 28285 ft 475 kts 270°
2026-04-30 14:25 55.84316 35.02137 28991 ft 477 kts 270°
2026-04-30 14:25 55.83751 34.90380 29835 ft 476 kts 270°
2026-04-30 14:26 55.83182 34.78642 30615 ft 476 kts 270°
2026-04-30 14:26 55.82896 34.72776 30956 ft 476 kts 270°
2026-04-30 14:26 55.82319 34.61037 31538 ft 477 kts 270°
2026-04-30 14:27 55.82024 34.55154 31873 ft 477 kts 270°
2026-04-30 14:27 55.81725 34.49282 32232 ft 477 kts 270°
2026-04-30 14:27 55.81423 34.43408 32577 ft 476 kts 270°
2026-04-30 14:28 55.80809 34.31687 33283 ft 476 kts 269°
2026-04-30 14:28 55.80493 34.25759 33653 ft 475 kts 269°
2026-04-30 14:28 55.80179 34.19922 34024 ft 474 kts 269°
2026-04-30 14:28 55.79864 34.14100 34371 ft 474 kts 269°
2026-04-30 14:29 55.79335 34.04419 34872 ft 472 kts 268°
2026-04-30 14:29 55.78695 33.92812 35450 ft 471 kts 268°
2026-04-30 14:30 55.77705 33.75450 36204 ft 471 kts 268°
2026-04-30 14:31 55.77039 33.63884 36248 ft 470 kts 268°
2026-04-30 14:31 55.76027 33.46574 36247 ft 470 kts 268°
2026-04-30 14:32 55.74979 33.29262 36247 ft 470 kts 268°
2026-04-30 14:33 55.74265 33.17728 36222 ft 470 kts 268°
2026-04-30 14:33 55.73172 33.00345 36236 ft 471 kts 268°
2026-04-30 14:34 55.72434 32.88805 36237 ft 471 kts 268°
2026-04-30 14:34 55.71681 32.77272 36241 ft 471 kts 268°
2026-04-30 14:35 55.70528 32.59966 36240 ft 471 kts 267°
2026-04-30 14:36 55.69752 32.48423 36215 ft 471 kts 268°
2026-04-30 14:36 55.68969 32.36886 36226 ft 471 kts 268°
2026-04-30 14:37 55.68173 32.25358 36236 ft 472 kts 268°
2026-04-30 14:37 55.67366 32.13825 36238 ft 472 kts 267°
2026-04-30 14:38 55.66540 32.02287 36245 ft 472 kts 267°
2026-04-30 14:38 55.65700 31.90754 36238 ft 472 kts 267°
2026-04-30 14:39 55.64851 31.79219 36242 ft 472 kts 267°
2026-04-30 14:39 55.64002 31.67697 36223 ft 472 kts 267°
2026-04-30 14:40 55.62709 31.50412 36235 ft 473 kts 267°
2026-04-30 14:40 55.61823 31.38885 36239 ft 473 kts 267°
2026-04-30 14:41 55.60922 31.27362 36245 ft 473 kts 267°
2026-04-30 14:41 55.60018 31.15844 36247 ft 473 kts 267°
2026-04-30 14:42 55.59097 31.04329 36208 ft 473 kts 267°
2026-04-30 14:42 55.58031 30.92841 36225 ft 477 kts 260°
2026-04-30 14:43 55.56277 30.81507 36240 ft 478 kts 259°
2026-04-30 14:43 55.54507 30.70190 36245 ft 478 kts 259°
2026-04-30 14:44 55.52724 30.58881 36245 ft 478 kts 259°
2026-04-30 14:44 55.50923 30.47572 36248 ft 478 kts 259°
2026-04-30 14:45 55.49131 30.36274 36255 ft 478 kts 259°
2026-04-30 14:45 55.47414 30.24877 36216 ft 478 kts 260°
2026-04-30 14:46 55.45727 30.13546 36229 ft 479 kts 260°
2026-04-30 14:46 55.43993 30.02214 36239 ft 479 kts 259°
2026-04-30 14:47 55.42233 29.90879 36247 ft 480 kts 259°
2026-04-30 14:47 55.40465 29.79557 36252 ft 480 kts 259°
2026-04-30 14:48 55.38685 29.68232 36253 ft 480 kts 259°
2026-04-30 14:48 55.36894 29.56915 36254 ft 480 kts 259°
2026-04-30 14:49 55.35092 29.45605 36226 ft 481 kts 259°
2026-04-30 14:49 55.33283 29.34291 36239 ft 481 kts 259°
2026-04-30 14:50 55.30537 29.17334 36254 ft 482 kts 259°
2026-04-30 14:51 55.27736 29.00387 36266 ft 484 kts 255°
2026-04-30 14:51 55.24533 28.89903 36275 ft 495 kts 235°
2026-04-30 14:52 55.22220 28.85406 36272 ft 499 kts 226°
2026-04-30 14:52 55.14695 28.72799 36275 ft 499 kts 226°
2026-04-30 14:53 55.07173 28.60202 36278 ft 500 kts 226°
2026-04-30 14:54 54.97113 28.43488 36278 ft 500 kts 226°
2026-04-30 14:55 54.89538 28.31026 36287 ft 500 kts 226°
2026-04-30 14:56 54.79428 28.14438 36263 ft 501 kts 226°
2026-04-30 14:57 54.71814 28.02016 36274 ft 501 kts 225°
2026-04-30 14:58 54.61627 27.85562 36276 ft 501 kts 225°
2026-04-30 14:58 54.53974 27.73238 36288 ft 501 kts 225°
2026-04-30 15:00 54.41187 27.52836 36294 ft 501 kts 225°
2026-04-30 15:01 54.30901 27.36564 36299 ft 501 kts 225°
2026-04-30 15:01 54.23207 27.24444 36293 ft 501 kts 224°
2026-04-30 15:02 54.18938 27.17761 36297 ft 501 kts 224°
2026-04-30 15:03 54.06059 26.97776 36302 ft 501 kts 224°
2026-04-30 15:04 53.93154 26.77910 36310 ft 500 kts 224°
2026-04-30 15:06 53.81670 26.56035 36304 ft 497 kts 233°
2026-04-30 15:07 53.72908 26.37971 36309 ft 497 kts 233°
2026-04-30 15:08 53.64087 26.19917 36313 ft 497 kts 233°
2026-04-30 15:09 53.53074 25.97545 36319 ft 496 kts 233°
2026-04-30 15:10 53.44237 25.79737 36322 ft 496 kts 232°
2026-04-30 15:11 53.30939 25.53181 36329 ft 496 kts 232°
2026-04-30 15:13 53.19813 25.31187 36295 ft 496 kts 232°
2026-04-30 15:14 53.04124 25.00489 36317 ft 498 kts 232°
2026-04-30 15:17 52.83771 24.61233 36337 ft 498 kts 231°
2026-04-30 15:19 52.65618 24.26733 36349 ft 497 kts 231°